Regional Weather Roundup
Issued by NWS

Home | Current Version | Previous Version | Graphics & Text | Print | Product List | Glossary On
Versions: 1 2 3 4 5 6 7 8 9 10 11 12 13 14 15 16 17 18 19 20 21 22 23 24 25 26 27 28 29 30 31 32 33 34 35 36 37 38 39 40 41 42 43 44 45 46 47 48 49 50
339
ASUS43 KBIS 212202
RWRND

NORTH DAKOTA REGIONAL WEATHER ROUNDUP
NATIONAL WEATHER SERVICE BISMARCK ND
500 PM CDT SAT OCT 21 2017

NOTE: "FAIR" INDICATES FEW OR NO CLOUDS BELOW 12,000 FEET WITH NO
SIGNIFICANT WEATHER AND/OR OBSTRUCTIONS TO VISIBILITY.


NDZ001>003-009>011-017-212300-
NORTHWEST NORTH DAKOTA

CITY           SKY/WX    TMP DP  RH WIND       PRES   REMARKS
WILLISTON      CLOUDY    51  33  50 NW24G35   29.70R
MINOT          CLOUDY    50  36  58 W28G41    29.58R
MINOT AFB      CLOUDY    49  36  61 W25G32    29.55R
$$

NDZ018>021-031>035-040>046-212300-
SOUTHWEST NORTH DAKOTA

CITY           SKY/WX    TMP DP  RH WIND       PRES   REMARKS
BISMARCK       CLOUDY    51  37  58 NW14G26   29.69R
DICKINSON      CLOUDY    52  29  41 NW24G40   29.70R
GARRISON         N/A     50  36  58 NW31G45   29.62R
HETTINGER ARPT CLOUDY    54  25  32 W35G47    29.77R
$$

NDZ004>008-012>016-024-026-027-054-212300-
NORTHEAST NORTH DAKOTA

CITY           SKY/WX    TMP DP  RH WIND       PRES   REMARKS
GRAND FORKS    CLOUDY    57  43  59 W16G24    29.54R
GRND FRKS AFB  CLOUDY    56  42  60 W10       29.54R
DEVILS LAKE    LGT RAIN  49  43  80 W15       29.56R
$$

NDZ022-023-025-028>030-036>039-047>053-212300-
SOUTHEAST NORTH DAKOTA

CITY           SKY/WX    TMP DP  RH WIND       PRES   REMARKS
FARGO          CLOUDY    58  45  62 W17       29.59R
JAMESTOWN      CLOUDY    50  43  77 W14       29.62R
$$





USA.gov is the U.S. government's official web portal to all federal, state and local government web resources and services.